DW7680 Weather Reports


Display with metric or nautical units.
time (UTC)temp
F
wind
direction
speed
MPH
gust
MPH
rain 1hr
in
rain 24hr
in
rain mn
in
humidity
%
barometer
mb
20260503203002 61 302 7.0 15.0 0.00 0.02 0.01 39 1019.4
20260503201502 61 250 6.0 14.0 0.00 0.02 0.01 40 1019.7
20260503200004 61 266 7.0 16.0 0.00 0.02 0.01 39 1019.8
20260503194503 61 263 7.0 14.0 0.00 0.02 0.01 39 1019.8
20260503193003 63 254 3.0 8.0 0.00 0.02 0.01 43 1020.0
20260503191508 62 94 2.0 7.0 0.00 0.02 0.01 47 1020.2
20260503190002 62 140 4.0 9.0 0.00 0.02 0.01 43 1020.2
20260503184502 62 46 3.0 10.0 0.00 0.02 0.01 39 1020.6
20260503183002 62 136 3.0 11.0 0.00 0.02 0.01 43 1020.9
20260503181503 61 130 3.0 8.0 0.00 0.02 0.01 44 1021.3
20260503180012 60 272 4.0 9.0 0.00 0.02 0.01 45 1021.8
20260503174502 59 81 3.0 10.0 0.00 0.02 0.01 47 1022.0
20260503173003 58 190 3.0 11.0 0.00 0.02 0.01 49 1022.4
20260503171503 58 74 4.0 10.0 0.00 0.02 0.01 49 1022.7
20260503081509 34 269 4.0 9.0 0.00 0.02 0.01 90 1024.6
20260503071504 35 276 3.0 8.0 0.01 0.02 0.01 89 1025.0
20260503054511 36 288 2.0 5.0 0.00 0.01 0.01 89 1025.0
20260503053004 37 272 2.0 7.0 0.00 0.01 0.01 89 1024.9
20260503051504 37 265 2.0 7.0 0.00 0.01 0.01 89 1024.9
20260503050022 38 296 2.0 4.0 0.00 0.01 0.01 89 1024.9
20260503044504 38 273 1.0 4.0 0.00 0.01 0.01 88 1024.8
20260503043003 39 295 1.0 3.0 0.00 0.01 0.01 88 1024.9
20260503041508 39 295 1.0 4.0 0.00 0.01 0.01 88 1025.2
20260503040005 40 274 1.0 3.0 0.00 0.01 0.01 88 1025.2
20260503034504 41 106 0.0 3.0 0.00 0.01 0.01 88 1025.2
20260503033004 42 106 0.0 1.0 0.00 0.01 0.01 87 1025.0
20260503031504 42 106 0.0 0.0 0.00 0.01 0.01 87 1024.8
20260503030005 43 106 0.0 0.0 0.00 0.01 0.01 87 1024.6
20260503024503 43 106 0.0 2.0 0.00 0.01 0.01 86 1024.7
20260503023003 43 106 0.0 0.0 0.00 0.01 0.01 86 1024.7
20260503021506 43 106 0.0 0.0 0.00 0.01 0.01 85 1024.5
20260503020003 44 106 0.0 0.0 0.00 0.02 0.01 84 1024.7
20260503014503 44 106 0.0 2.0 0.00 0.02 0.01 82 1024.4
20260503013007 44 106 0.0 6.0 0.00 0.02 0.01 81 1024.3
20260503011504 44 123 3.0 5.0 0.00 0.02 0.01 81 1024.2
20260503010002 44 111 5.0 11.0 0.00 0.02 0.01 79 1024.1
20260503004502 45 70 3.0 5.0 0.00 0.02 0.01 78 1024.3
20260503003002 45 51 4.0 9.0 0.00 0.02 0.01 77 1024.2
20260503001503 46 39 3.0 7.0 0.00 0.02 0.01 76 1024.3
20260503000006 46 78 2.0 7.0 0.00 0.02 0.01 76 1024.2
20260502234506 46 86 4.0 10.0 0.00 0.02 0.01 75 1024.1
20260502233002 46 76 2.0 12.0 0.00 0.02 0.01 76 1023.9
20260502231502 47 91 3.0 9.0 0.00 0.02 0.01 75 1024.1
20260502230004 47 71 4.0 11.0 0.01 0.02 0.01 74 1023.9
20260502224502 48 47 6.0 11.0 0.01 0.02 0.01 75 1023.7
20260502223002 46 75 4.0 12.0 0.01 0.02 0.01 78 1023.8
20260502221502 46 81 5.0 12.0 0.01 0.02 0.01 79 1023.8
20260502220005 47 88 2.0 9.0 0.00 0.01 0.00 75 1023.9
20260502214502 50 84 3.0 9.0 0.00 0.01 0.00 67 1024.1
20260502213003 49 121 5.0 14.0 0.00 0.01 0.00 66 1024.3
20260502211510 50 106 8.0 17.0 0.00 0.01 0.00 65 1024.7
20260502210007 50 100 6.0 12.0 0.00 0.01 0.00 64 1025.0
20260502204502 50 117 7.0 13.0 0.00 0.02 0.00 62 1025.2